,,Stat5,,Stat1,,Stat2,,Stat3,,Stat4,,Wind1,,Wind1,
time,status,PA1M_AVG,status,PR1M_SUM,status,RH1M_AVG,status,SR1M_AVG,status,TA1M_AVG,status,W1dAve1m,status,W1sAve1m,
2001-09-18, 00:00:00,VALID,919.243,VALID,0,VALID,99.6061,VALID,0,VALID,18.6726,VALID,118,VALID,0.721423,
2001-09-18, 00:01:00,VALID,919.234,VALID,0,VALID,99.6137,VALID,0,VALID,18.6664,VALID,96,VALID,0.496745,
2001-09-18, 00:02:00,VALID,919.224,VALID,0,VALID,99.6086,VALID,0.0169808,VALID,18.6597,VALID,80,VALID,0.0214844,
2001-09-18, 00:03:00,VALID,919.211,VALID,0,VALID,99.6086,VALID,0.0169808,VALID,18.6632,VALID,67,VALID,0,
2001-09-18, 00:04:00,VALID,919.196,VALID,0,VALID,99.6111,VALID,0,VALID,18.6503,VALID,48,VALID,0,
2001-09-18, 00:05:00,VALID,919.171,VALID,0,VALID,99.6111,VALID,0,VALID,18.6406,VALID,48,VALID,0,
2001-09-18, 00:06:00,VALID,919.162,VALID,0,VALID,99.6137,VALID,0,VALID,18.6304,VALID,48,VALID,0,
2001-09-18, 00:07:00,VALID,919.165,VALID,0,VALID,99.6137,VALID,0,VALID,18.6374,VALID,56,VALID,0,
2001-09-18, 00:08:00,VALID,919.149,VALID,0,VALID,99.6137,VALID,0,VALID,18.621,VALID,67,VALID,0.338942,
2001-09-18, 00:09:00,VALID,919.144,VALID,0,VALID,99.6099,VALID,0,VALID,18.6085,VALID,69,VALID,0.692023,
2001-09-18, 00:10:00,VALID,919.136,VALID,0,VALID,99.6048,VALID,0,VALID,18.5884,VALID,61,VALID,0.660056,
2001-09-18, 00:11:00,VALID,919.139,VALID,0,VALID,99.6048,VALID,0,VALID,18.5822,VALID,67,VALID,0.547697,
2001-09-18, 00:12:00,VALID,919.121,VALID,0,VALID,99.6162,VALID,0.0169808,VALID,18.582,VALID,74,VALID,0.143029,
2001-09-18, 00:13:00,VALID,919.108,VALID,0,VALID,99.6188,VALID,0,VALID,18.5723,VALID,74,VALID,0.0721628,
2001-09-18, 00:14:00,VALID,919.111,VALID,0,VALID,99.6111,VALID,0,VALID,18.5859,VALID,74,VALID,0,
2001-09-18, 00:15:00,VALID,919.118,VALID,0,VALID,99.615,VALID,0.0169808,VALID,18.5792,VALID,74,VALID,0,
2001-09-18, 00:16:00,VALID,919.132,VALID,0,VALID,99.6213,VALID,-0.0339617,VALID,18.5924,VALID,74,VALID,0,
2001-09-18, 00:17:00,VALID,919.122,VALID,0,VALID,99.6289,VALID,0,VALID,18.5825,VALID,74,VALID,0,
2001-09-18, 00:18:00,VALID,919.113,VALID,0,VALID,99.6251,VALID,0,VALID,18.5792,VALID,74,VALID,0,
2001-09-18, 00:19:00,VALID,919.116,VALID,0,VALID,99.6289,VALID,0,VALID,18.573,VALID,74,VALID,0,
2001-09-18, 00:20:00,VALID,919.108,VALID,0,VALID,99.6251,VALID,0.0169808,VALID,18.573,VALID,74,VALID,0,
2001-09-18, 00:21:00,VALID,919.096,VALID,0,VALID,99.6226,VALID,0,VALID,18.5596,VALID,74,VALID,0,
2001-09-18, 00:22:00,VALID,919.09,VALID,0,VALID,99.6264,VALID,0,VALID,18.5469,VALID,74,VALID,0,
2001-09-18, 00:23:00,VALID,919.07,VALID,0,VALID,99.6188,VALID,0,VALID,18.5402,VALID,74,VALID,0,
2001-09-18, 00:24:00,VALID,919.067,VALID,0,VALID,99.62,VALID,0.0169808,VALID,18.5342,VALID,74,VALID,0,
2001-09-18, 00:25:00,VALID,919.059,VALID,0,VALID,99.6188,VALID,0,VALID,18.5375,VALID,74,VALID,0,
2001-09-18, 00:26:00,VALID,919.046,VALID,0,VALID,99.6251,VALID,0.0339617,VALID,18.5271,VALID,83,VALID,0.133614,
2001-09-18, 00:27:00,VALID,919.045,VALID,0,VALID,99.6328,VALID,-0.0169808,VALID,18.5532,VALID,106,VALID,0.384663,
2001-09-18, 00:28:00,VALID,919.045,VALID,0,VALID,99.6213,VALID,0,VALID,18.5661,VALID,106,VALID,0.335938,
2001-09-18, 00:29:00,VALID,919.05,VALID,0,VALID,99.6264,VALID,0,VALID,18.5695,VALID,103,VALID,0.441817,
2001-09-18, 00:30:00,VALID,919.045,VALID,0,VALID,99.6226,VALID,0.0169808,VALID,18.5502,VALID,103,VALID,0.273638,
2001-09-18, 00:31:00,VALID,919.039,VALID,0,VALID,99.6277,VALID,-0.0169808,VALID,18.5546,VALID,103,VALID,0.374178,
2001-09-18, 00:32:00,VALID,919.037,VALID,0,VALID,99.6302,VALID,-0.0169808,VALID,18.5578,VALID,116,VALID,0.613381,
2001-09-18, 00:33:00,VALID,919.028,VALID,0,VALID,99.615,VALID,-0.0169808,VALID,18.5416,VALID,102,VALID,0.320107,
2001-09-18, 00:34:00,VALID,919.004,VALID,0,VALID,99.6213,VALID,-0.0339617,VALID,18.5386,VALID,102,VALID,0.0602965,
2001-09-18, 00:35:00,VALID,918.979,VALID,0,VALID,99.6239,VALID,-0.0339617,VALID,18.5158,VALID,102,VALID,0.0738076,
2001-09-18, 00:36:00,VALID,918.959,VALID,0,VALID,99.6239,VALID,-0.0169808,VALID,18.5121,VALID,98,VALID,0.362981,
2001-09-18, 00:37:00,VALID,918.942,VALID,0,VALID,99.6353,VALID,0,VALID,18.5119,VALID,87,VALID,0.56435,
2001-09-18, 00:38:00,VALID,918.927,VALID,0,VALID,99.6213,VALID,-0.0679233,VALID,18.5287,VALID,80,VALID,0.371394,
2001-09-18, 00:39:00,VALID,918.901,VALID,0,VALID,99.6404,VALID,-0.0339617,VALID,18.5322,VALID,92,VALID,0.391653,
2001-09-18, 00:40:00,VALID,918.901,VALID,0,VALID,99.6455,VALID,-0.0509425,VALID,18.5379,VALID,109,VALID,0.539663,
2001-09-18, 00:41:00,VALID,918.872,VALID,0,VALID,99.6442,VALID,-0.0509425,VALID,18.5541,VALID,105,VALID,0.713816,
2001-09-18, 00:42:00,VALID,918.838,VALID,0,VALID,99.6328,VALID,-0.0509425,VALID,18.5776,VALID,100,VALID,0.677885,
2001-09-18, 00:43:00,VALID,918.823,VALID,0,VALID,99.6417,VALID,-0.0169808,VALID,18.5739,VALID,81,VALID,0.598684,
2001-09-18, 00:44:00,VALID,918.792,VALID,0,VALID,99.6277,VALID,-0.0169808,VALID,18.5543,VALID,76,VALID,0.538061,
2001-09-18, 00:45:00,VALID,918.777,VALID,0,VALID,99.6328,VALID,-0.0509425,VALID,18.5516,VALID,87,VALID,0.61986,
2001-09-18, 00:46:00,VALID,918.765,VALID,0,VALID,99.6455,VALID,-0.0679233,VALID,18.5451,VALID,73,VALID,0.863782,
2001-09-18, 00:47:00,VALID,918.743,VALID,0,VALID,99.6264,VALID,-0.0169808,VALID,18.5354,VALID,73,VALID,0.478002,
2001-09-18, 00:48:00,VALID,918.738,VALID,0,VALID,99.6378,VALID,-0.0339617,VALID,18.5093,VALID,56,VALID,0.689704,
2001-09-18, 00:49:00,VALID,918.726,VALID,0,VALID,99.6264,VALID,-0.0169808,VALID,18.4927,VALID,50,VALID,0.650905,
2001-09-18, 00:50:00,VALID,918.707,VALID,0,VALID,99.6277,VALID,-0.0509425,VALID,18.4803,VALID,54,VALID,0.445913,
2001-09-18, 00:51:00,VALID,918.683,VALID,0,VALID,99.6289,VALID,-0.0509425,VALID,18.4807,VALID,39,VALID,0.206414,
2001-09-18, 00:52:00,VALID,918.66,VALID,0,VALID,99.634,VALID,-0.0339617,VALID,18.4574,VALID,58,VALID,0.347957,
2001-09-18, 00:53:00,VALID,918.641,VALID,0,VALID,99.6315,VALID,-0.0339617,VALID,18.4348,VALID,58,VALID,0.24116,
2001-09-18, 00:54:00,VALID,918.613,VALID,0,VALID,99.634,VALID,-0.0169808,VALID,18.4284,VALID,59,VALID,0.328325,
2001-09-18, 00:55:00,VALID,918.583,VALID,0,VALID,99.6264,VALID,-0.0169808,VALID,18.4058,VALID,60,VALID,0.106497,
2001-09-18, 00:56:00,VALID,918.543,VALID,0,VALID,99.6328,VALID,-0.0339617,VALID,18.3931,VALID,74,VALID,0.158654,
2001-09-18, 00:57:00,VALID,918.515,VALID,0,VALID,99.6531,VALID,-0.0339617,VALID,18.4288,VALID,116,VALID,0.403166,
2001-09-18, 00:58:00,VALID,918.482,VALID,0,VALID,99.6607,VALID,-0.0169808,VALID,18.4348,VALID,121,VALID,0.341947,
2001-09-18, 00:59:00,VALID,918.468,VALID,0,VALID,99.6391,VALID,-0.0169808,VALID,18.4572,VALID,132,VALID,0.5,
2001-09-18, 01:00:00,VALID,918.455,VALID,0,VALID,99.6506,VALID,-0.0509425,VALID,18.451,VALID,135,VALID,0.389022,
2001-09-18, 01:01:00,VALID,918.457,VALID,0,VALID,99.6544,VALID,-0.0169808,VALID,18.4676,VALID,145,VALID,0.555304,
2001-09-18, 01:02:00,VALID,918.461,VALID,0,VALID,99.6544,VALID,-0.0509425,VALID,18.4741,VALID,153,VALID,0.588742,
2001-09-18, 01:03:00,VALID,918.443,VALID,0,VALID,99.6556,VALID,-0.0679233,VALID,18.4741,VALID,138,VALID,0.514803,
2001-09-18, 01:04:00,VALID,918.432,VALID,0,VALID,99.6417,VALID,-0.101885,VALID,18.4678,VALID,144,VALID,0.751402,
2001-09-18, 01:05:00,VALID,918.411,VALID,0,VALID,99.6468,VALID,-0.0339617,VALID,18.4547,VALID,144,VALID,0.6875,
2001-09-18, 01:06:00,VALID,918.396,VALID,0,VALID,99.6493,VALID,-0.0169808,VALID,18.4577,VALID,151,VALID,0.475962,
2001-09-18, 01:07:00,VALID,918.386,VALID,0,VALID,99.6531,VALID,-0.0509425,VALID,18.4644,VALID,154,VALID,0.608964,
2001-09-18, 01:08:00,VALID,918.387,VALID,0,VALID,99.6531,VALID,-0.0509425,VALID,18.4678,VALID,146,VALID,0.503606,
2001-09-18, 01:09:00,VALID,918.396,VALID,0,VALID,99.6506,VALID,-0.0169808,VALID,18.4614,VALID,142,VALID,0.698191,
2001-09-18, 01:10:00,VALID,918.392,VALID,0,VALID,99.6569,VALID,-0.0339617,VALID,18.4713,VALID,150,VALID,0.585136,
2001-09-18, 01:11:00,VALID,918.383,VALID,0,VALID,99.6468,VALID,0,VALID,18.4611,VALID,141,VALID,0.519326,
2001-09-18, 01:12:00,VALID,918.365,VALID,0,VALID,99.6518,VALID,-0.0509425,VALID,18.4448,VALID,152,VALID,0.149239,
2001-09-18, 01:13:00,VALID,918.338,VALID,0,VALID,99.6531,VALID,-0.0509425,VALID,18.4353,VALID,137,VALID,0.32278,
2001-09-18, 01:14:00,VALID,918.331,VALID,0,VALID,99.6417,VALID,-0.0339617,VALID,18.4097,VALID,139,VALID,0.184095,
2001-09-18, 01:15:00,VALID,918.313,VALID,0,VALID,99.6429,VALID,-0.0169808,VALID,18.3866,VALID,139,VALID,0.088199,
2001-09-18, 01:16:00,VALID,918.309,VALID,0,VALID,99.6442,VALID,0.0169808,VALID,18.3666,VALID,140,VALID,0.00400641,
2001-09-18, 01:17:00,VALID,918.301,VALID,0,VALID,99.6455,VALID,0.101885,VALID,18.3403,VALID,140,VALID,0.0941612,
2001-09-18, 01:18:00,VALID,918.289,VALID,0,VALID,99.6378,VALID,0.0679233,VALID,18.3244,VALID,141,VALID,0,
2001-09-18, 01:19:00,VALID,918.275,VALID,0,VALID,99.6391,VALID,0.0339617,VALID,18.3211,VALID,145,VALID,0,
2001-09-18, 01:20:00,VALID,918.262,VALID,0,VALID,99.6366,VALID,0.0339617,VALID,18.3154,VALID,190,VALID,0.0562901,
2001-09-18, 01:21:00,VALID,918.253,VALID,0,VALID,99.6353,VALID,0.0169808,VALID,18.305,VALID,192,VALID,0.0676398,
2001-09-18, 01:22:00,VALID,918.27,VALID,0,VALID,99.648,VALID,0.0339617,VALID,18.2921,VALID,192,VALID,0,
2001-09-18, 01:23:00,VALID,918.277,VALID,0,VALID,99.6378,VALID,0.0169808,VALID,18.2757,VALID,192,VALID,0,
2001-09-18, 01:24:00,VALID,918.274,VALID,0,VALID,99.6328,VALID,0.0339617,VALID,18.2243,VALID,192,VALID,0,
2001-09-18, 01:25:00,VALID,918.277,VALID,0,VALID,99.6137,VALID,0.0339617,VALID,18.1401,VALID,95,VALID,0.174137,
2001-09-18, 01:26:00,VALID,918.272,VALID,0,VALID,99.6442,VALID,0.0679233,VALID,18.1214,VALID,67,VALID,0.544071,
2001-09-18, 01:27:00,VALID,918.27,VALID,0,VALID,99.6722,VALID,0.0339617,VALID,18.1532,VALID,72,VALID,0.339638,
2001-09-18, 01:28:00,VALID,918.249,VALID,0,VALID,99.69,VALID,0.0849042,VALID,18.2148,VALID,83,VALID,0.181891,
2001-09-18, 01:29:00,VALID,918.233,VALID,0,VALID,99.6798,VALID,0.0339617,VALID,18.2531,VALID,83,VALID,0,
2001-09-18, 01:30:00,VALID,918.233,VALID,0,VALID,99.6633,VALID,0.0679233,VALID,18.215,VALID,83,VALID,0,
2001-09-18, 01:31:00,VALID,918.231,VALID,0,VALID,99.6289,VALID,0,VALID,18.0658,VALID,73,VALID,0,
2001-09-18, 01:32:00,VALID,918.233,VALID,0,VALID,99.6239,VALID,0.0169808,VALID,17.9505,VALID,57,VALID,0,
2001-09-18, 01:33:00,VALID,918.213,VALID,0,VALID,99.6035,VALID,0.0339617,VALID,17.792,VALID,43,VALID,0,
2001-09-18, 01:34:00,VALID,918.21,VALID,0,VALID,99.6061,VALID,0.0339617,VALID,17.727,VALID,36,VALID,0.115385,
2001-09-18, 01:35:00,VALID,918.196,VALID,0,VALID,99.6162,VALID,0.0509425,VALID,17.6595,VALID,24,VALID,0.706003,
2001-09-18, 01:36:00,VALID,918.181,VALID,0,VALID,99.6493,VALID,0.0509425,VALID,17.6887,VALID,26,VALID,0.569912,
2001-09-18, 01:37:00,VALID,918.182,VALID,0,VALID,99.6773,VALID,0.0169808,VALID,17.763,VALID,23,VALID,0.450452,
2001-09-18, 01:38:00,VALID,918.18,VALID,0,VALID,99.6874,VALID,0.0169808,VALID,17.8022,VALID,30,VALID,0.354968,
2001-09-18, 01:39:00,VALID,918.18,VALID,0,VALID,99.7002,VALID,0.0169808,VALID,17.8534,VALID,35,VALID,0.143914,
2001-09-18, 01:40:00,VALID,918.174,VALID,0,VALID,99.6989,VALID,-0.0169808,VALID,17.8861,VALID,35,VALID,0,
2001-09-18, 01:41:00,VALID,918.173,VALID,0,VALID,99.7129,VALID,0,VALID,17.8958,VALID,35,VALID,0,
2001-09-18, 01:42:00,VALID,918.156,VALID,0,VALID,99.6976,VALID,0,VALID,17.899,VALID,35,VALID,0,
2001-09-18, 01:43:00,VALID,918.144,VALID,0,VALID,99.6963,VALID,0,VALID,17.8799,VALID,35,VALID,0,
2001-09-18, 01:44:00,VALID,918.142,VALID,0,VALID,99.6925,VALID,0.0339617,VALID,17.8633,VALID,35,VALID,0,
2001-09-18, 01:45:00,VALID,918.123,VALID,0,VALID,99.6684,VALID,0,VALID,17.7694,VALID,35,VALID,0,
2001-09-18, 01:46:00,VALID,918.12,VALID,0,VALID,99.6798,VALID,0.0509425,VALID,17.689,VALID,36,VALID,0,
2001-09-18, 01:47:00,VALID,918.104,VALID,0,VALID,99.7141,VALID,0,VALID,17.7314,VALID,34,VALID,0,
2001-09-18, 01:48:00,VALID,918.087,VALID,0,VALID,99.718,VALID,0,VALID,17.7768,VALID,31,VALID,0,
2001-09-18, 01:49:00,VALID,918.067,VALID,0,VALID,99.7103,VALID,0,VALID,17.7475,VALID,30,VALID,0,
2001-09-18, 01:50:00,VALID,918.049,VALID,0,VALID,99.7256,VALID,0,VALID,17.7628,VALID,32,VALID,0,
2001-09-18, 01:51:00,VALID,918.02,VALID,0,VALID,99.7256,VALID,0,VALID,17.8086,VALID,33,VALID,0,
2001-09-18, 01:52:00,VALID,917.991,VALID,0,VALID,99.7269,VALID,-0.0169808,VALID,17.8089,VALID,33,VALID,0,
2001-09-18, 01:53:00,VALID,917.968,VALID,0,VALID,99.7218,VALID,0,VALID,17.8052,VALID,33,VALID,0,
2001-09-18, 01:54:00,VALID,917.958,VALID,0,VALID,99.7421,VALID,0.0169808,VALID,17.8308,VALID,33,VALID,0,
2001-09-18, 01:55:00,VALID,917.947,VALID,0,VALID,99.7205,VALID,0.0339617,VALID,17.8442,VALID,57,VALID,0,
2001-09-18, 01:56:00,VALID,917.955,VALID,0,VALID,99.6976,VALID,0,VALID,17.7964,VALID,59,VALID,0,
2001-09-18, 01:57:00,VALID,917.948,VALID,0,VALID,99.7091,VALID,0,VALID,17.7667,VALID,59,VALID,0,
2001-09-18, 01:58:00,VALID,917.942,VALID,0,VALID,99.7459,VALID,0,VALID,17.7733,VALID,64,VALID,0,
2001-09-18, 01:59:00,VALID,917.93,VALID,0,VALID,99.7599,VALID,0.0169808,VALID,17.8407,VALID,77,VALID,0,
2001-09-18, 02:00:00,VALID,917.935,VALID,0,VALID,99.7294,VALID,0.0679233,VALID,17.8345,VALID,81,VALID,0,
2001-09-18, 02:01:00,VALID,917.939,VALID,0,VALID,99.737,VALID,0,VALID,17.8114,VALID,98,VALID,0,
2001-09-18, 02:02:00,VALID,917.922,VALID,0,VALID,99.7281,VALID,0.0339617,VALID,17.7953,VALID,98,VALID,0,
2001-09-18, 02:03:00,VALID,917.923,VALID,0,VALID,99.7256,VALID,0.0339617,VALID,17.7826,VALID,103,VALID,0,
2001-09-18, 02:04:00,VALID,917.935,VALID,0,VALID,99.7396,VALID,0.0169808,VALID,17.7697,VALID,117,VALID,0,
2001-09-18, 02:05:00,VALID,917.946,VALID,0,VALID,99.7421,VALID,0.0339617,VALID,17.7959,VALID,111,VALID,0,
2001-09-18, 02:06:00,VALID,917.948,VALID,0,VALID,99.7574,VALID,0.0169808,VALID,17.8282,VALID,115,VALID,0,
2001-09-18, 02:07:00,VALID,917.946,VALID,0,VALID,99.7548,VALID,0,VALID,17.8834,VALID,111,VALID,0,
2001-09-18, 02:08:00,VALID,917.941,VALID,0,VALID,99.7497,VALID,0,VALID,17.899,VALID,110,VALID,0,
2001-09-18, 02:09:00,VALID,917.935,VALID,0,VALID,99.7434,VALID,0,VALID,17.9154,VALID,111,VALID,0,
2001-09-18, 02:10:00,VALID,917.91,VALID,0,VALID,99.7383,VALID,0.0169808,VALID,17.9283,VALID,115,VALID,0,
2001-09-18, 02:11:00,VALID,917.912,VALID,0,VALID,99.737,VALID,-0.0169808,VALID,17.9286,VALID,115,VALID,0,
2001-09-18, 02:12:00,VALID,917.883,VALID,0,VALID,99.7536,VALID,0.0169808,VALID,17.9572,VALID,119,VALID,0,
2001-09-18, 02:13:00,VALID,917.875,VALID,0,VALID,99.737,VALID,0,VALID,17.9509,VALID,133,VALID,0,
2001-09-18, 02:14:00,VALID,917.846,VALID,0,VALID,99.7243,VALID,0,VALID,17.9184,VALID,149,VALID,0,
2001-09-18, 02:15:00,VALID,917.825,VALID,0,VALID,99.737,VALID,0,VALID,17.9186,VALID,145,VALID,0,
2001-09-18, 02:16:00,VALID,917.821,VALID,0,VALID,99.7408,VALID,0.0169808,VALID,17.9087,VALID,142,VALID,0,
2001-09-18, 02:17:00,VALID,917.811,VALID,0,VALID,99.7396,VALID,0.0169808,VALID,17.9122,VALID,134,VALID,0,
2001-09-18, 02:18:00,VALID,917.797,VALID,0,VALID,99.7281,VALID,0,VALID,17.9122,VALID,133,VALID,0,
2001-09-18, 02:19:00,VALID,917.803,VALID,0,VALID,99.7307,VALID,0.0169808,VALID,17.896,VALID,129,VALID,0,
2001-09-18, 02:20:00,VALID,917.8,VALID,0,VALID,99.7027,VALID,0,VALID,17.8188,VALID,94,VALID,0,
2001-09-18, 02:21:00,VALID,917.798,VALID,0,VALID,99.7192,VALID,-0.0169808,VALID,17.7477,VALID,82,VALID,0,
2001-09-18, 02:22:00,VALID,917.799,VALID,0,VALID,99.737,VALID,0.0169808,VALID,17.7023,VALID,80,VALID,0,
2001-09-18, 02:23:00,VALID,917.803,VALID,0,VALID,99.751,VALID,0,VALID,17.7055,VALID,81,VALID,0,
2001-09-18, 02:24:00,VALID,917.8,VALID,0,VALID,99.7841,VALID,-0.0169808,VALID,17.7706,VALID,99,VALID,0,
2001-09-18, 02:25:00,VALID,917.801,VALID,0,VALID,99.7828,VALID,0,VALID,17.8345,VALID,112,VALID,0,
2001-09-18, 02:26:00,VALID,917.806,VALID,0,VALID,99.7612,VALID,0.0339617,VALID,17.8767,VALID,109,VALID,0,
2001-09-18, 02:27:00,VALID,917.802,VALID,0,VALID,99.7358,VALID,0.0509425,VALID,17.8734,VALID,109,VALID,0,
2001-09-18, 02:28:00,VALID,917.792,VALID,0,VALID,99.7052,VALID,0.0849042,VALID,17.7699,VALID,109,VALID,0,
2001-09-18, 02:29:00,VALID,917.788,VALID,0,VALID,99.7319,VALID,0.0339617,VALID,17.712,VALID,117,VALID,0,
2001-09-18, 02:30:00,VALID,917.785,VALID,0,VALID,99.737,VALID,0.0339617,VALID,17.6929,VALID,107,VALID,0,
2001-09-18, 02:31:00,VALID,917.785,VALID,0,VALID,99.7396,VALID,-0.0849042,VALID,17.6485,VALID,93,VALID,0,
2001-09-18, 02:32:00,VALID,917.766,VALID,0,VALID,99.7447,VALID,-0.101885,VALID,17.6262,VALID,93,VALID,0,
2001-09-18, 02:33:00,VALID,917.763,VALID,0,VALID,99.737,VALID,-0.0679233,VALID,17.6199,VALID,92,VALID,0,
2001-09-18, 02:34:00,VALID,917.759,VALID,0,VALID,99.7307,VALID,-0.0849042,VALID,17.5685,VALID,92,VALID,0,
2001-09-18, 02:35:00,VALID,917.744,VALID,0,VALID,99.7421,VALID,-0.0849042,VALID,17.5325,VALID,92,VALID,0,
2001-09-18, 02:36:00,VALID,917.736,VALID,0,VALID,99.7332,VALID,-0.0509425,VALID,17.4938,VALID,88,VALID,0,
2001-09-18, 02:37:00,VALID,917.722,VALID,0,VALID,99.7332,VALID,-0.101885,VALID,17.429,VALID,77,VALID,0,
2001-09-18, 02:38:00,VALID,917.71,VALID,0,VALID,99.7218,VALID,-0.0679233,VALID,17.3386,VALID,77,VALID,0,
2001-09-18, 02:39:00,VALID,917.687,VALID,0,VALID,99.7345,VALID,-0.0679233,VALID,17.2807,VALID,77,VALID,0,
2001-09-18, 02:40:00,VALID,917.676,VALID,0,VALID,99.751,VALID,-0.0679233,VALID,17.3033,VALID,77,VALID,0,
2001-09-18, 02:41:00,VALID,917.659,VALID,0,VALID,99.7663,VALID,-0.0339617,VALID,17.3808,VALID,77,VALID,0,
2001-09-18, 02:42:00,VALID,917.647,VALID,0,VALID,99.7637,VALID,-0.0679233,VALID,17.3872,VALID,77,VALID,0,
2001-09-18, 02:43:00,VALID,917.647,VALID,0,VALID,99.7866,VALID,-0.0509425,VALID,17.4294,VALID,77,VALID,0,
2001-09-18, 02:44:00,VALID,917.638,VALID,0,VALID,99.8171,VALID,-0.0849042,VALID,17.5263,VALID,77,VALID,0,
2001-09-18, 02:45:00,VALID,917.649,VALID,0,VALID,99.7675,VALID,-0.0509425,VALID,17.5418,VALID,77,VALID,0,
2001-09-18, 02:46:00,VALID,917.646,VALID,0,VALID,99.7269,VALID,-0.0339617,VALID,17.4875,VALID,92,VALID,0,
2001-09-18, 02:47:00,VALID,917.634,VALID,0,VALID,99.7345,VALID,-0.0679233,VALID,17.4098,VALID,127,VALID,0,
2001-09-18, 02:48:00,VALID,917.651,VALID,0,VALID,99.7612,VALID,-0.0849042,VALID,17.4165,VALID,128,VALID,0,
2001-09-18, 02:49:00,VALID,917.656,VALID,0,VALID,99.7447,VALID,-0.101885,VALID,17.423,VALID,127,VALID,0,
2001-09-18, 02:50:00,VALID,917.675,VALID,0,VALID,99.7421,VALID,-0.0679233,VALID,17.3842,VALID,126,VALID,0,
2001-09-18, 02:51:00,VALID,917.667,VALID,0,VALID,99.7714,VALID,-0.0679233,VALID,17.3614,VALID,125,VALID,0,
2001-09-18, 02:52:00,VALID,917.676,VALID,0,VALID,99.7981,VALID,-0.101885,VALID,17.3877,VALID,123,VALID,0,
2001-09-18, 02:53:00,VALID,917.681,VALID,0,VALID,99.7828,VALID,-0.101885,VALID,17.4165,VALID,123,VALID,0,
2001-09-18, 02:54:00,VALID,917.701,VALID,0,VALID,99.7955,VALID,-0.101885,VALID,17.4527,VALID,123,VALID,0,
2001-09-18, 02:55:00,VALID,917.706,VALID,0,VALID,99.7993,VALID,-0.101885,VALID,17.4686,VALID,123,VALID,0,
2001-09-18, 02:56:00,VALID,917.71,VALID,0,VALID,99.7803,VALID,-0.0849042,VALID,17.4395,VALID,123,VALID,0,
2001-09-18, 02:57:00,VALID,917.722,VALID,0,VALID,99.7726,VALID,-0.101885,VALID,17.407,VALID,123,VALID,0,
2001-09-18, 02:58:00,VALID,917.719,VALID,0,VALID,99.7612,VALID,-0.101885,VALID,17.3586,VALID,123,VALID,0,
2001-09-18, 02:59:00,VALID,917.719,VALID,0,VALID,99.7383,VALID,-0.101885,VALID,17.2488,VALID,123,VALID,0,
2001-09-18, 03:00:00,VALID,917.725,VALID,0,VALID,99.751,VALID,-0.0679233,VALID,17.1587,VALID,123,VALID,0,
2001-09-18, 03:01:00,VALID,917.71,VALID,0,VALID,99.7904,VALID,0,VALID,17.1696,VALID,123,VALID,0,
2001-09-18, 03:02:00,VALID,917.691,VALID,0,VALID,99.8299,VALID,0,VALID,17.2704,VALID,123,VALID,0,
2001-09-18, 03:03:00,VALID,917.674,VALID,0,VALID,99.8349,VALID,0.0339617,VALID,17.3513,VALID,123,VALID,0,
2001-09-18, 03:04:00,VALID,917.656,VALID,0,VALID,99.821,VALID,0,VALID,17.4186,VALID,123,VALID,0,
2001-09-18, 03:05:00,VALID,917.647,VALID,0,VALID,99.7917,VALID,0.0169808,VALID,17.4283,VALID,123,VALID,0,
2001-09-18, 03:06:00,VALID,917.642,VALID,0,VALID,99.7548,VALID,0,VALID,17.3377,VALID,110,VALID,0,
2001-09-18, 03:07:00,VALID,917.609,VALID,0,VALID,99.7218,VALID,0,VALID,17.0928,VALID,61,VALID,0,
2001-09-18, 03:08:00,VALID,917.603,VALID,0,VALID,99.7599,VALID,0,VALID,16.9766,VALID,60,VALID,0,
2001-09-18, 03:09:00,VALID,917.586,VALID,0,VALID,99.8438,VALID,0,VALID,17.0665,VALID,75,VALID,0,
2001-09-18, 03:10:00,VALID,917.574,VALID,0,VALID,99.8464,VALID,0.0339617,VALID,17.1991,VALID,74,VALID,0,
2001-09-18, 03:11:00,VALID,917.563,VALID,0,VALID,99.8362,VALID,0,VALID,17.2026,VALID,68,VALID,0,
2001-09-18, 03:12:00,VALID,917.555,VALID,0,VALID,99.8057,VALID,0.0169808,VALID,17.1765,VALID,65,VALID,0,
2001-09-18, 03:13:00,VALID,917.553,VALID,0,VALID,99.8019,VALID,0.0169808,VALID,17.1315,VALID,65,VALID,0,
2001-09-18, 03:14:00,VALID,917.526,VALID,0,VALID,99.8095,VALID,0.0339617,VALID,17.1057,VALID,67,VALID,0,
2001-09-18, 03:15:00,VALID,917.52,VALID,0,VALID,99.8756,VALID,0,VALID,17.1772,VALID,86,VALID,0,
2001-09-18, 03:16:00,VALID,917.508,VALID,0,VALID,99.8553,VALID,-0.0849042,VALID,17.2714,VALID,109,VALID,0,
2001-09-18, 03:17:00,VALID,917.508,VALID,0,VALID,99.8553,VALID,-0.0339617,VALID,17.3489,VALID,109,VALID,0,
2001-09-18, 03:18:00,VALID,917.507,VALID,0,VALID,99.8388,VALID,-0.0509425,VALID,17.3971,VALID,104,VALID,0,
2001-09-18, 03:19:00,VALID,917.494,VALID,0,VALID,99.8197,VALID,-0.0509425,VALID,17.3974,VALID,92,VALID,0,
2001-09-18, 03:20:00,VALID,917.455,VALID,0,VALID,99.7904,VALID,-0.0679233,VALID,17.2684,VALID,79,VALID,0,
2001-09-18, 03:21:00,VALID,917.446,VALID,0,VALID,99.807,VALID,-0.0509425,VALID,17.1421,VALID,83,VALID,0,
2001-09-18, 03:22:00,VALID,917.417,VALID,0,VALID,99.8616,VALID,-0.0509425,VALID,17.1584,VALID,94,VALID,0.598357,
2001-09-18, 03:23:00,VALID,917.399,VALID,0,VALID,99.8489,VALID,-0.0849042,VALID,17.2654,VALID,102,VALID,0.706003,
2001-09-18, 03:24:00,VALID,917.389,VALID,0,VALID,99.8299,VALID,-0.0679233,VALID,17.2652,VALID,118,VALID,0.659856,
2001-09-18, 03:25:00,VALID,917.386,VALID,0,VALID,99.8311,VALID,-0.0679233,VALID,17.2329,VALID,129,VALID,0.542558,
2001-09-18, 03:26:00,VALID,917.377,VALID,0,VALID,99.8286,VALID,-0.0849042,VALID,17.2008,VALID,120,VALID,0.361178,
2001-09-18, 03:27:00,VALID,917.381,VALID,0,VALID,99.826,VALID,-0.0679233,VALID,17.1649,VALID,116,VALID,0.728207,
2001-09-18, 03:28:00,VALID,917.39,VALID,0,VALID,99.8553,VALID,-0.0169808,VALID,17.1711,VALID,118,VALID,0.898638,
2001-09-18, 03:29:00,VALID,917.406,VALID,0,VALID,99.854,VALID,-0.0339617,VALID,17.2166,VALID,120,VALID,0.967516,
2001-09-18, 03:30:00,VALID,917.419,VALID,0,VALID,99.8451,VALID,-0.0509425,VALID,17.2426,VALID,128,VALID,0.68149,
2001-09-18, 03:31:00,VALID,917.403,VALID,0,VALID,99.8388,VALID,0.0169808,VALID,17.2542,VALID,122,VALID,0.712582,
2001-09-18, 03:32:00,VALID,917.383,VALID,0,VALID,99.84,VALID,0.0169808,VALID,17.2669,VALID,121,VALID,0.65625,
2001-09-18, 03:33:00,VALID,917.379,VALID,0,VALID,99.8464,VALID,0.0679233,VALID,17.3029,VALID,114,VALID,0.641242,
2001-09-18, 03:34:00,VALID,917.351,VALID,0,VALID,99.8438,VALID,0.0509425,VALID,17.3186,VALID,121,VALID,0.583734,
2001-09-18, 03:35:00,VALID,917.344,VALID,0,VALID,99.8375,VALID,0.0849042,VALID,17.3186,VALID,124,VALID,0.175781,
2001-09-18, 03:36:00,VALID,917.337,VALID,0,VALID,99.84,VALID,0.0679233,VALID,17.3183,VALID,124,VALID,0.440905,
2001-09-18, 03:37:00,VALID,917.341,VALID,0,VALID,99.8426,VALID,0.0339617,VALID,17.3313,VALID,124,VALID,0.356497,
2001-09-18, 03:38:00,VALID,917.353,VALID,0,VALID,99.8616,VALID,0.0339617,VALID,17.3416,VALID,123,VALID,0.526242,
2001-09-18, 03:39:00,VALID,917.354,VALID,0,VALID,99.8477,VALID,0.0509425,VALID,17.3704,VALID,113,VALID,0.545025,
2001-09-18, 03:40:00,VALID,917.36,VALID,0,VALID,99.8718,VALID,0.0509425,VALID,17.412,VALID,97,VALID,0.747196,